This is the latest recevied weather packets stored in our database for station/object NR6G-12. If no packets are shown the sender has not sent any weather packets the latest 10 day(s).
| Time | Temp. | Humidity | Pressure | Rain* | Wind** | Luminosity | Snow |
|---|---|---|---|---|---|---|---|
| 1777392721 | 7.78° C | 80% | 1018.1 hPa | 0 mm | - | - | - |
| 1777392361 | 7.78° C | 78% | 1018 hPa | 0 mm | - | - | - |
| 1777392001 | 7.22° C | 81% | 1018 hPa | 0 mm | - | - | - |
| 1777391640 | 7.22° C | 79% | 1017.9 hPa | 0 mm | - | - | - |
| 1777391281 | 7.22° C | 80% | 1017.8 hPa | 0 mm | - | - | - |
| 1777390921 | 7.22° C | 79% | 1017.7 hPa | 0 mm | - | - | - |
| 1777390561 | 7.22° C | 80% | 1017.6 hPa | 0 mm | - | - | - |
| 1777390201 | 6.67° C | 81% | 1017.7 hPa | 0 mm | - | - | - |
| 1777389841 | 6.67° C | 84% | 1017.6 hPa | 0 mm | - | - | - |
| 1777389481 | 6.11° C | 84% | 1017.4 hPa | 0 mm | - | - | - |
| 1777389121 | 6.11° C | 83% | 1017.4 hPa | 0 mm | - | - | - |
| 1777388761 | 5.56° C | 84% | 1017.2 hPa | 0 mm | - | - | - |
| 1777388401 | 5.56° C | 84% | 1017 hPa | 0 mm | - | - | - |
| 1777388041 | 5.56° C | 84% | 1017.1 hPa | 0 mm | - | - | - |
| 1777387681 | 5.56° C | 83% | 1017 hPa | 0 mm | - | - | - |
| 1777387321 | 5° C | 83% | 1016.9 hPa | 0 mm | - | - | - |
| 1777386961 | 5° C | 83% | 1016.9 hPa | 0 mm | - | - | - |
| 1777386601 | 5° C | 83% | 1016.8 hPa | 0 mm | - | - | - |
| 1777386240 | 5° C | 84% | 1016.6 hPa | 0 mm | - | - | - |
| 1777385881 | 4.44° C | 85% | 1015.8 hPa | 0 mm | - | - | - |
| 1777385520 | 4.44° C | 86% | 1015.8 hPa | 0 mm | - | - | - |
| 1777385161 | 4.44° C | 86% | 1015.7 hPa | 0 mm | - | - | - |
| 1777384800 | 4.44° C | 87% | 1015.8 hPa | 0 mm | - | - | - |
| 1777384441 | 4.44° C | 88% | 1015.8 hPa | 0 mm | - | - | - |
| 1777384080 | 3.89° C | 89% | 1015.8 hPa | 0 mm | - | - | - |
* Rain latest hour (hover to see other rain measurements)
** Current wind speed in m/s (hover to see current wind gust speed)